Tracking 31027 objects as of 19-Jul-2025
HD Live streaming from Space Station
objects crossing your sky now

DMSP 5D-2 F13 DEB

Track DMSP 5D-2 F13 DEB now!
10-day predictions


NORAD ID: 40516
Int'l Code: 1995-015DC
Perigee: 768.7 km
Apogee: 804.3 km
Inclination: 98.8 °
Period: 100.4 minutes
Semi major axis: 7157 km
RCS: Unknown
Launch date: March 24, 1995
Source: United States (US)
Launch site: AIR FORCE WESTERN TEST RANGE (AFWTR)

Note: This is SATELLITE DEBRIS
Your satellite tracking list
COSMOS 1743
Track 1 satellite(s)




NASA's NSSDC Master Catalog

Two Line Element Set (TLE):
1 40516U 95015DC  25199.00761588  .00003397  00000-0  12357-2 0  9999
2 40516  98.8081 224.3029 0024831  36.3783 323.9082 14.33712380534520
Source of the keplerian elements: AFSPC